Change the Weather History Date:

Monday, September 17, 2012

  Actual Average Record
Temperature  
Mean Temperature 48 °F 58 °F  
Max Temperature 62 °F 71 °F 96 °F (1989)
Min Temperature 34 °F 44 °F 27 °F (1973)
Degree Days  
Heating Degree Days 17 8  
Month to date heating degree days 94 92  
Since 1 July heating degree days 120 147  
Cooling Degree Days 0 1  
Month to date cooling degree days 33 32  
Year to date cooling degree days 599 513  
Moisture  
Dew Point 35 °F    
Average Humidity 60    
Maximum Humidity 93    
Minimum Humidity 26    
Precipitation  
Precipitation T in 0.05 in 0.85 in (1942)
Month to date precipitation 0.04 0.97  
Year to date precipitation 12.17 14.78  
Snow  
Snow 0.00 in 0.00 in T in (2010)
Month to date snowfall 0.0 0.0  
Since 1 July snowfall 0.0 0.0  
Since 1 September snowfall 0.0 0.0  
Snow Depth 0.00 in    
Sea Level Pressure  
Sea Level Pressure 30.16 in    
Wind  
Wind Speed 8 mph (NNW)    
Max Wind Speed 20 mph    
Max Gust Speed 28 mph    
Visibility 10 miles    
Events Rain    
T = Trace of Precipitation, MM = Missing Value Source: NWS Daily Summary

Daily Weather History Graph

Daily Weather History Graph

Search for Another Location

Airport or City:

Trip Planner

Search our weather history database for the weather conditions in past years. The results will help you decide how hot, cold, wet, or windy it might be!

Date:

Astronomy

Sep. 17, 2012 Rise Set
Actual Time 7:24 AM CDT 7:49 PM CDT
Civil Twilight 6:53 AM CDT 8:19 PM CDT
Nautical Twilight 6:17 AM CDT 8:55 PM CDT
Astronomical Twilight 5:40 AM CDT 9:32 PM CDT
Moon 9:26 AM CDT (9/17) 8:20 PM CDT (9/17)
Length of Visible Light 13h 26m
Length of Day
12h 25m
Waxing Crescent, 3% of the Moon is Illuminated
Sep 17
Waxing Crescent
Sep 22
First Quarter
Sep 29
Full
Oct 8
Last Quarter
Oct 15
New

Hourly Weather History & Observations

Time (CDT) Temp. Windchill Dew Point Humidity Pressure Visibility Wind Dir Wind Speed Gust Speed Precip Events Conditions
12:52 AM 46.9 °F - 44.1 °F 90% 30.17 in 10.0 mi Calm Calm - N/A   Clear
1:52 AM 46.9 °F - 42.1 °F 83% 30.18 in 7.0 mi NE 5.8 mph - 0.00 in Rain Light Rain
2:52 AM 46.9 °F - 44.1 °F 90% 30.19 in 10.0 mi Calm Calm - 0.00 in   Overcast
3:52 AM 46.0 °F 43.9 °F 43.0 °F 89% 30.15 in 10.0 mi SSW 4.6 mph - N/A   Mostly Cloudy
4:52 AM 45.0 °F 42.6 °F 43.0 °F 93% 30.16 in 10.0 mi West 4.6 mph - N/A   Overcast
5:52 AM 44.1 °F 41.5 °F 41.0 °F 89% 30.16 in 10.0 mi WNW 4.6 mph - N/A   Scattered Clouds
6:52 AM 42.8 °F 40.1 °F 39.2 °F 87% 30.14 in 10.0 mi NW 4.6 mph - N/A   Clear
7:52 AM 43.0 °F 38.8 °F 39.9 °F 89% 30.18 in 10.0 mi NW 6.9 mph - N/A   Clear
8:52 AM 46.9 °F - 42.1 °F 83% 30.18 in 10.0 mi NNW 8.1 mph - N/A   Clear
9:52 AM 48.0 °F - 42.1 °F 80% 30.20 in 10.0 mi WNW 6.9 mph - N/A   Mostly Cloudy
10:52 AM 52.0 °F - 39.0 °F 61% 30.20 in 10.0 mi North 9.2 mph - N/A   Clear
11:52 AM 55.0 °F - 37.0 °F 51% 30.19 in 10.0 mi NNW 12.7 mph 16.1 mph N/A   Clear
12:52 PM 57.9 °F - 34.0 °F 41% 30.18 in 10.0 mi North 10.4 mph - N/A   Partly Cloudy
1:52 PM 59.0 °F - 30.9 °F 35% 30.16 in 10.0 mi NNW 13.8 mph 20.7 mph N/A   Partly Cloudy
2:52 PM 61.0 °F - 27.0 °F 27% 30.14 in 10.0 mi WNW 16.1 mph 21.9 mph N/A   Scattered Clouds
3:52 PM 61.0 °F - 28.0 °F 29% 30.13 in 10.0 mi North 13.8 mph 23.0 mph N/A   Partly Cloudy
4:52 PM 61.0 °F - 26.1 °F 26% 30.12 in 10.0 mi NW 16.1 mph 20.7 mph N/A   Clear
5:52 PM 59.0 °F - 25.0 °F 27% 30.13 in 10.0 mi NNW 13.8 mph 26.5 mph N/A   Clear
6:52 PM 57.0 °F - 28.0 °F 33% 30.14 in 10.0 mi North 13.8 mph - N/A   Clear
7:52 PM 52.0 °F - 28.0 °F 40% 30.14 in 10.0 mi North 5.8 mph - N/A   Clear
8:52 PM 48.9 °F - 28.0 °F 44% 30.15 in 10.0 mi North 4.6 mph - N/A   Clear
9:52 PM 41.0 °F 39.0 °F 28.0 °F 60% 30.16 in 10.0 mi SSE 3.5 mph - N/A   Clear
10:52 PM 39.9 °F - 30.0 °F 68% 30.14 in 10.0 mi Calm Calm - N/A   Clear
11:52 PM 39.0 °F - 30.0 °F 70% 30.13 in 10.0 mi Calm Calm - N/A   Clear